Wind_Speed
28 34 31 29 63 61 57 56 50 45 42 42 42 39 39 37 34 32 31 25 22 19 17 14 12 9 7
16 31 31 29 59 64 63 58 55 48 43 43 43 42 39 37 35 34 33 27 24 21 18 15 13 10 7
17 18 21 34 46 67 65 61 58 52 45 44 43 44 42 38 37 35 34 29 25 23 20 17 14 11 9
23 15 16 28 40 60 61 64 62 57 50 43 44 46 44 39 38 36 34 30 28 25 21 18 15 13 10
26 21 17 21 30 36 63 61 60 61 54 50 48 47 46 43 38 32 33 31 31 27 24 21 17 14 12
31 28 21 16 27 28 41 58 48 63 59 56 53 50 52 47 43 35 28 20 30 29 26 23 19 16 14
32 33 26 20 23 33 35 54 52 53 60 54 56 52 50 51 46 41 32 24 19 28 27 25 22 18 15
31 34 33 28 20 24 36 44 50 57 63 45 59 55 51 50 48 44 38 31 26 22 28 26 23 20 17
32 32 34 33 31 21 26 41 34 53 62 45 57 54 54 54 51 47 42 35 32 27 24 27 25 22 19
34 34 34 36 38 31 24 37 31 32 59 51 54 55 40 54 52 50 45 40 38 34 31 25 24 24 23
31 34 34 35 39 39 33 30 28 27 41 53 54 60 43 42 54 54 52 46 46 41 36 32 31 29 25
30 32 33 35 38 41 41 36 29 26 34 50 49 63 55 44 53 55 54 54 51 50 44 39 38 35 31
33 32 30 32 33 34 37 43 39 32 34 49 34 57 63 56 57 57 58 57 58 55 49 47 47 45 41
30 28 29 29 29 32 31 36 44 43 33 37 42 41 58 60 58 58 56 61 60 59 53 51 51 50 45
33 30 26 26 28 30 30 29 40 47 42 35 34 35 51 58 58 55 55 55 58 60 58 57 57 56 53
33 31 29 27 27 28 29 31 32 43 53 47 39 27 33 47 54 57 57 53 54 52 57 59 61 61 59
38 37 32 29 26 26 30 32 36 37 44 56 53 39 35 45 49 52 53 54 52 51 50 51 55 59 59
Wind_Direction
214 238 236 205 204 200 197 196 194 192 198 197 196 198 197 197 197 191 189 186 182 181 179 172 165 158 149
203 225 240 239 202 200 198 196 193 192 199 200 199 197 203 202 199 196 195 188 185 186 186 181 174 168 165
230 190 211 226 200 199 198 195 195 191 198 204 206 199 201 206 205 203 202 193 188 192 192 189 183 178 178
244 221 182 220 194 185 188 194 192 191 195 201 205 203 202 205 209 207 210 200 192 197 197 196 191 186 189
238 222 192 183 205 191 186 187 191 191 192 197 200 204 205 204 214 220 218 208 198 197 202 202 198 194 197
234 225 209 179 195 209 186 179 178 195 190 195 200 203 203 206 207 216 222 224 210 203 202 207 206 204 205
235 233 220 208 180 203 212 184 185 188 190 189 199 204 209 207 210 211 215 218 212 214 209 209 211 210 213
229 227 232 219 214 183 192 192 191 195 193 184 197 204 208 213 211 212 211 214 217 214 212 213 216 216 216
228 227 226 225 218 200 183 184 185 185 190 187 192 197 208 213 214 213 212 216 218 220 218 215 216 219 219
230 229 227 223 217 208 199 184 181 183 187 188 190 190 192 210 215 210 211 217 220 220 222 220 215 215 219
233 232 227 229 226 212 215 201 185 180 186 187 192 196 197 200 212 211 212 215 217 218 218 220 226 230 232
233 231 228 227 230 229 223 217 210 185 188 192 196 203 197 201 203 211 214 216 218 218 215 214 216 220 229
230 229 229 229 227 230 230 228 224 214 183 191 197 205 212 207 210 213 212 215 218 218 218 219 221 221 219
236 234 231 233 224 224 229 229 223 222 215 194 195 200 206 213 218 216 216 211 218 220 221 222 226 230 232
233 236 237 235 233 225 229 229 227 228 225 221 204 198 210 218 216 219 218 217 221 220 218 222 227 232 231
229 235 236 235 233 227 224 221 223 229 230 228 227 219 209 210 225 225 224 223 221 222 224 223 226 230 234
226 229 227 230 225 225 223 223 224 224 222 229 232 229 224 207 210 222 225 223 225 221 227 228 231 235 235
Height
1436 1438 1443 1442 1451 1465 1474 1485 1493 1502 1510 1517 1526 1533 1539 1546 1551 1556 1560 1563 1568 1572 1575 1578 1581 1583 1584
1430 1433 1436 1444 1444 1454 1463 1477 1487 1497 1506 1513 1521 1528 1535 1543 1548 1552 1557 1561 1565 1569 1573 1576 1579 1582 1583
1425 1428 1431 1436 1438 1445 1455 1468 1481 1491 1500 1509 1516 1524 1530 1537 1543 1548 1553 1558 1563 1567 1571 1574 1578 1580 1582
1420 1421 1424 1431 1434 1435 1447 1459 1470 1484 1495 1502 1511 1519 1526 1532 1538 1545 1549 1555 1560 1565 1569 1572 1575 1579 1580
1416 1418 1422 1425 1432 1433 1438 1451 1462 1473 1486 1495 1503 1512 1520 1527 1533 1539 1545 1550 1556 1561 1566 1570 1573 1576 1579
1413 1415 1417 1422 1426 1431 1435 1438 1454 1465 1475 1486 1496 1503 1511 1520 1527 1535 1540 1547 1553 1558 1562 1567 1570 1573 1576
1409 1411 1413 1417 1422 1429 1434 1434 1443 1455 1469 1477 1487 1497 1505 1514 1521 1528 1536 1543 1549 1554 1558 1563 1567 1571 1574
1403 1406 1407 1412 1417 1420 1426 1436 1442 1448 1460 1469 1478 1490 1499 1508 1515 1523 1531 1538 1544 1548 1553 1558 1563 1567 1570
1394 1398 1403 1405 1412 1417 1421 1429 1434 1438 1449 1458 1470 1483 1492 1499 1507 1517 1525 1532 1539 1544 1548 1553 1558 1563 1566
1387 1392 1396 1399 1407 1413 1417 1421 1429 1436 1439 1450 1462 1471 1483 1492 1499 1510 1517 1525 1533 1538 1542 1548 1554 1557 1560
1382 1388 1391 1396 1400 1405 1412 1417 1421 1428 1435 1440 1451 1461 1472 1479 1489 1499 1508 1515 1524 1531 1535 1541 1546 1550 1555
1373 1377 1379 1384 1392 1397 1406 1413 1418 1424 1430 1438 1442 1449 1460 1469 1477 1489 1499 1505 1512 1519 1525 1532 1539 1544 1548
1367 1370 1374 1383 1388 1393 1398 1404 1411 1418 1422 1429 1436 1443 1447 1456 1464 1475 1487 1494 1501 1508 1515 1519 1527 1533 1538
1360 1363 1369 1378 1382 1386 1393 1398 1402 1410 1416 1421 1429 1438 1441 1449 1456 1463 1472 1479 1490 1498 1504 1510 1518 1522 1528
1356 1358 1363 1370 1373 1380 1385 1390 1393 1400 1409 1415 1423 1429 1436 1441 1447 1453 1461 1469 1478 1485 1492 1499 1505 1511 1517
1350 1353 1357 1364 1369 1375 1378 1381 1386 1392 1400 1409 1418 1422 1428 1433 1439 1443 1451 1460 1467 1474 1482 1488 1494 1499 1505
1341 1346 1352 1357 1364 1367 1371 1375 1378 1384 1391 1400 1407 1413 1421 1422 1428 1434 1442 1449 1458 1465 1472 1477 1483 1486 1492